Location: Владивосток
(43.1151°N, 131.8856°E)
Time: 11:29:14
(UTC+10:00)

VELOX 1 - Pass Details

Date: 09 July 2022
Orbit: 623 x 639 km, 98.4° (Epoch: 17 August)

Event Time Altitude Azimuth Distance (km) Brightness Sun altitude
Rises 04:14:05 0° 113° (ESE) 2,932 ? -12.9°
Reaches altitude 10° 04:17:30 10° 85° (E) 2,032 ? -12.5°
Maximum altitude 04:19:21 13° 60° (ENE) 1,872 ? -12.3°
Drops below altitude 10° 04:21:12 10° 35° (NE) 2,039 ? -12.1°
Sets 04:24:37 0° 7° (N) 2,956 ? -11.6°
